NOAA 16 DEB, 41305

Orbit data source: Space-Track

NOAA 16 DEB, 41305 is space debris in SSO originally from a launch on Thu, 21 Sep 2000 UTC launched from the Air Force Western Test Range (AFWTR). Debris objects in space refer to the collection of defunct objects orbiting the Earth. Examples of debris include non-operational satellites, rocket bodies, and fragments generated from explosions, collisions, or faulty payload assembly.

Loading next visibility...
Identifier
41305, 2000-055HH
Orbit
SSO
Country
Flag of USUS
Related business
Manufacturer
Unknown
Mission
Spacecraft
Bus & Motor
Unknown
Mass
Unknown
Launch date (UTC)
2000-09-21 (26 years ago)
Launch vehicle
Unknown
Launch site
Air Force Western Test Range (AFWTR)
Object type
Payload
Rocket body
Debris
Shape & HBR
Unknown shape, 0.1 m
Radar Cross Section
Medium (>0.1 m² and <1 m²)

Expand to show TLE details & history
Last TLE update: 2 days ago

TLE from 2 days ago
0 NOAA 16 DEB
1 41305U 00055HH  26176.25651918  .00002858  00000-0  13996-2 0  9995
2 41305  98.7279 168.6976 0031287 235.5492 124.2726 14.18386104538669
Epoch: 2026-06-25T06:09Z
TLE epoch observation values (Epoch: 2026-06-25T06:09:23.257Z)
Latitude
-0.00001°
Longitude
162.94871°
Altitude
846.479 km
Speed
7.423 km/s
True Right ascension
11h 14m 47s
True Declination
0° 00' 00"
Sunlit
Object was in daylight at epoch
Visualization orbit readout
Latitude
Unknown
Longitude
Unknown
Altitude
Unknown
Speed
Unknown
Apparent Right ascension
Unknown
Apparent Declination
Unknown
Sunlit
N/A
Visualization observer readout
Local Sidereal Time
10:01:59
Azimuth
Unknown
Elevation
Unknown
Doppler factor
Unknown
Orbital elements
Apogee altitude
850.523 km
Perigee altitude
805.432 km
Semi-major axis
7,206.115 km
Eccentricity
0.00313
Inclination
98.7279°
RAAN
168.6976°
Arg. of periapsis
235.5492°
True anomaly
124.56822°
Mean anomaly
124.2726°
Eccentric anomaly
124.42047°
Mean motion
3.54806 °/min
Orbital period
101.46 mins
BSTAR
0.0013996
Loading maneuver chart data...
Computing Atmospheric mass density...
Loading historical data...
Loading historical data...
Loading historical data...
Loading historical data...
Loading historical data...
Loading historical data...
Loading historical data...

Documentation

Showing up to 5 results
|